Weather History for KHIF - August, 2014

Change the Weather History Date:

Thursday, August 14, 2014

  Actual Average Record
Temperature  
Mean Temperature 74 °F -  
Max Temperature 86 °F 84 °F 95 °F (2003)
Min Temperature 62 °F 61 °F 57 °F (1997)
Cooling Degree Days 9    
Growing Degree Days 24 (Base 50)    
Moisture  
Dew Point 55 °F    
Average Humidity 55    
Maximum Humidity 82    
Minimum Humidity 29    
Precipitation  
Precipitation 0.03 in - - ()
Sea Level Pressure  
Sea Level Pressure 29.94 in    
Wind  
Wind Speed 10 mph (SE)    
Max Wind Speed 15 mph    
Max Gust Speed -    
Visibility 10 miles    
Events Rain    
Averages and records for this station are not official NWS values.
T = Trace of Precipitation, MM = Missing Value Source: NWS Daily Summary

Daily Weather History Graph

Daily Weather History Graph

Search for Another Location

Airport or City:

Trip Planner

Search our weather history database for the weather conditions in past years. The results will help you decide how hot, cold, wet, or windy it might be!

Date:

Astronomy

Aug. 14, 2014 Rise Set
Actual Time 6:36 AM MDT 8:27 PM MDT
Civil Twilight 6:06 AM MDT 8:57 PM MDT
Nautical Twilight 5:30 AM MDT 9:33 PM MDT
Astronomical Twilight 4:51 AM MDT 10:12 PM MDT
Moon 10:50 PM MDT (8/14) 11:20 AM MDT (8/14)
Length of Visible Light 14h 50m
Length of Day
13h 51m
Waning Gibbous, 78% of the Moon is Illuminated
Aug 14
Waning Gibbous
Aug 17
Last Quarter
Aug 25
New
Sep 2
First Quarter
Sep 8
Full

Hourly Weather History & Observations

Time (MDT) Temp. Heat Index Dew Point Humidity Pressure Visibility Wind Dir Wind Speed Gust Speed Precip Events Conditions
12:58 AM 69.8 °F - 53.6 °F 56% 29.89 in 10.0 mi ESE 15.0 mph - N/A   Overcast
1:58 AM 68.0 °F - 53.6 °F 60% 29.88 in 10.0 mi ESE 5.8 mph - N/A   Mostly Cloudy
2:48 AM 68.0 °F - 53.6 °F 60% 30.05 in 10.0 mi ESE 11.5 mph - N/A   Mostly Cloudy
2:58 AM 68.0 °F - 53.6 °F 60% 29.88 in 10.0 mi SE 6.9 mph - N/A   Mostly Cloudy
3:03 AM 68.0 °F - 53.6 °F 60% 30.06 in 10.0 mi SE 8.1 mph - N/A   Mostly Cloudy
3:13 AM 68.0 °F - 53.6 °F 60% 30.07 in 10.0 mi SE 4.6 mph - N/A   Overcast
3:58 AM 69.8 °F - 55.4 °F 60% 29.91 in 10.0 mi ESE 8.1 mph - N/A   Overcast
3:59 AM 69.8 °F - 55.4 °F 60% 30.09 in 10.0 mi ESE 9.2 mph - N/A Rain Light Rain
4:14 AM 66.2 °F - 57.2 °F 73% 30.08 in 7.0 mi East 11.5 mph - N/A Rain Light Rain
4:29 AM 64.4 °F - 57.2 °F 77% 30.08 in 9.0 mi ESE 9.2 mph - N/A Rain Light Rain
4:34 AM 64.4 °F - 57.2 °F 77% 30.07 in 10.0 mi ESE 10.4 mph - N/A Rain Light Rain
4:39 AM 64.4 °F - 57.2 °F 77% 30.07 in 10.0 mi ESE 12.7 mph - N/A   Scattered Clouds
4:58 AM 62.6 °F - 57.2 °F 82% 29.89 in 10.0 mi ESE 15.0 mph - 0.03 in   Mostly Cloudy
5:58 AM 64.4 °F - 55.4 °F 73% 29.90 in 10.0 mi ESE 11.5 mph - N/A   Mostly Cloudy
6:08 AM 64.4 °F - 55.4 °F 73% 30.07 in 10.0 mi ESE 12.7 mph - N/A   Mostly Cloudy
6:58 AM 62.6 °F - 55.4 °F 77% 29.92 in 10.0 mi ESE 12.7 mph - N/A   Clear
7:58 AM 64.4 °F - 55.4 °F 73% 29.93 in 10.0 mi ESE 13.8 mph - N/A   Clear
8:58 AM 68.0 °F - 57.2 °F 68% 29.95 in 10.0 mi ESE 15.0 mph - N/A   Clear
9:58 AM 73.4 °F - 59.0 °F 61% 29.94 in 10.0 mi SE 8.1 mph - N/A   Clear
10:58 AM 77.0 °F - 59.0 °F 54% 29.94 in 10.0 mi South 13.8 mph - N/A   Partly Cloudy
11:58 AM 78.8 °F - 59.0 °F 51% 29.94 in 10.0 mi South 10.4 mph - N/A   Clear
12:58 PM 82.4 °F 81.7 °F 55.4 °F 39% 29.92 in 10.0 mi South 3.5 mph - N/A   Partly Cloudy
1:58 PM 78.8 °F - 55.4 °F 44% 29.93 in 10.0 mi SSW 8.1 mph - N/A   Mostly Cloudy
2:58 PM 82.4 °F 81.7 °F 55.4 °F 39% 29.90 in 10.0 mi Variable 5.8 mph - N/A   Scattered Clouds
3:58 PM 84.2 °F - 51.8 °F 33% 29.88 in 10.0 mi Variable 4.6 mph - 0.00 in   Clear
4:58 PM 86.0 °F - 51.8 °F 31% 29.86 in 10.0 mi Variable 2.3 mph - N/A   Clear
5:58 PM 86.0 °F - 50.0 °F 29% 29.85 in 10.0 mi West 9.2 mph - N/A   Clear
6:58 PM 84.2 °F - 51.8 °F 33% 29.85 in 10.0 mi North 4.6 mph - N/A   Clear
7:58 PM 82.4 °F - 51.8 °F 35% 29.84 in 10.0 mi NE 2.3 mph - N/A   Clear
8:58 PM 78.8 °F - 53.6 °F 42% 29.84 in 10.0 mi East 5.8 mph - N/A   Clear
9:58 PM 75.2 °F - 51.8 °F 44% 29.85 in 10.0 mi East 11.5 mph - N/A   Clear
10:43 PM 77.0 °F - 50.0 °F 39% 30.04 in 10.0 mi SSE 12.7 mph - N/A   Mostly Cloudy
10:58 PM 77.0 °F - 50.0 °F 39% 29.86 in 10.0 mi SSE 12.7 mph - N/A   Mostly Cloudy
11:58 PM 73.8 °F - 52.5 °F 47% 29.86 in 10.0 mi ESE 12.7 mph - N/A   Partly Cloudy